Voltar ao catálogo

COSMOS 2535

AtivoNavegaçãoSSO
NORAD 44421·PAYLOAD·🇷🇺 Russia

Lançado Jul 10, 2019 de Plesetsk Cosmodrome

Loading…

Próximas Passagens (próximas 24 horas)

TLE

AtualizadoSource: Space-Track

Época: Sep 14, 2026, 14:33 UTC

1 44421U 19039A   26257.60683987  .00000612  00000-0  65528-4 0  9995
2 44421  97.5729 282.3377 0006664 276.1734  83.8726 14.92084231389974

Acompanhe COSMOS 2535 em tempo real com AllMySat

Download on the App Store